Location: Houston
(29.7630°N, 95.3630°W)
Time: 16:38:36
(UTC-05:00)

Saudisat 1A - Visible Passes

Search period start: 31 July 2014 00:00
Search period end: 10 August 2014 00:00
Orbit: 599 x 609 km, 64.6° (Epoch: 30 July)

Date Brightness Start Highest point End Pass type
(mag) Time Alt. Az. Time Alt. Az. Time Alt. Az.
01 Aug 10.6 06:00:50 10° SSE 06:03:48 18° ESE 06:06:47 10° ENE visible
02 Aug 9.5 06:11:58 10° S 06:16:02 38° ESE 06:20:07 10° NE visible
04 Aug 10.7 04:59:50 10° SE 05:01:38 12° ESE 05:03:27 10° E visible
05 Aug 9.9 05:10:09 10° SSE 05:13:49 26° ESE 05:17:31 10° NE visible
06 Aug 8.5 05:22:57 18° S 05:26:05 57° ESE 05:30:25 10° NE visible
07 Aug 8.0 05:35:42 22° SW 05:38:27 65° WNW 05:42:51 10° NNE visible
08 Aug 10.2 04:11:31 19° ESE 04:11:36 19° ESE 04:14:40 10° ENE visible
08 Aug 9.0 05:48:21 18° WSW 05:50:55 31° WNW 05:54:51 10° N visible
09 Aug 9.1 04:24:06 38° ESE 04:24:06 38° ESE 04:27:56 10° NE visible
09 Aug 9.9 06:00:56 11° W 06:03:31 16° NW 06:06:17 10° NNW visible
